Year,Month,Day,Hour,Minute,Value (Times are PST for temperature in C)
2018,09,25,00,00,11.10
2018,09,25,00,01,11.10
2018,09,25,00,03,10.90
2018,09,25,00,29,10.80
2018,09,25,00,30,10.80
2018,09,25,01,29,10.70
2018,09,25,01,30,10.70
2018,09,25,01,31,10.70
2018,09,25,01,32,10.70
2018,09,25,01,33,10.70
2018,09,25,01,34,10.60
2018,09,25,01,35,10.60
2018,09,25,01,36,10.60
2018,09,25,01,37,10.60
2018,09,25,01,38,10.60
2018,09,25,01,39,10.60
2018,09,25,01,40,10.60
2018,09,25,01,41,10.40
2018,09,25,01,42,10.40
2018,09,25,01,43,10.40
2018,09,25,01,44,10.40
2018,09,25,01,45,10.40
2018,09,25,01,46,10.40
2018,09,25,01,47,10.40
2018,09,25,01,48,10.30
2018,09,25,01,49,10.30
2018,09,25,01,50,10.30
2018,09,25,01,51,10.30
2018,09,25,01,52,10.30
2018,09,25,01,53,10.30
2018,09,25,01,54,10.20
2018,09,25,01,55,10.20
2018,09,25,01,56,10.20
2018,09,25,01,57,10.20
2018,09,25,01,58,10.20
2018,09,25,01,59,10.20
2018,09,25,02,00,10.20
2018,09,25,02,02,10.20
2018,09,25,02,29,10.10
2018,09,25,02,30,10.10
2018,09,25,02,31,10.10
2018,09,25,02,32,10.10
2018,09,25,02,33,10.10
2018,09,25,02,34,10.10
2018,09,25,02,35,10.10
2018,09,25,02,36,10.10
2018,09,25,02,37,10.10
2018,09,25,02,38,10.10
2018,09,25,02,39,10.10
2018,09,25,02,40,10.10
2018,09,25,02,41,10.10
2018,09,25,02,42,10.10
2018,09,25,02,43,10.10
2018,09,25,02,44,10.10
2018,09,25,02,45,10.10
2018,09,25,02,46,10.10
2018,09,25,02,47,10.10
2018,09,25,02,48,10.10
2018,09,25,02,49,10.10
2018,09,25,02,50,10.10
2018,09,25,02,51,10.10
2018,09,25,02,52,10.10
2018,09,25,02,53,10.10
2018,09,25,02,54,10.10
2018,09,25,02,55,10.10
2018,09,25,02,56,10.10
2018,09,25,02,57,10.10
2018,09,25,02,58,10.10
2018,09,25,02,59,10.10
2018,09,25,03,00,10.10
2018,09,25,03,01,10.10
2018,09,25,03,03,10.10
2018,09,25,03,04,9.90
2018,09,25,03,29,10.60
2018,09,25,03,30,10.70
2018,09,25,03,31,10.70
2018,09,25,03,32,10.80
2018,09,25,03,33,10.80
2018,09,25,03,34,10.90
2018,09,25,03,35,10.90
2018,09,25,03,36,10.90
2018,09,25,03,37,10.90
2018,09,25,03,38,10.90
2018,09,25,03,39,10.90
2018,09,25,03,40,10.90
2018,09,25,03,41,10.90
2018,09,25,03,42,10.90
2018,09,25,03,43,10.90
2018,09,25,03,44,10.90
2018,09,25,03,45,10.90
2018,09,25,03,46,11.10
2018,09,25,03,47,11.10
2018,09,25,03,48,11.10
2018,09,25,03,49,11.10
2018,09,25,03,50,11.10
2018,09,25,03,51,11.10
2018,09,25,03,52,11.10
2018,09,25,03,53,11.10
2018,09,25,03,54,11.10
2018,09,25,03,55,11.10
2018,09,25,03,56,11.10
2018,09,25,03,57,11.10
2018,09,25,03,58,11.10
2018,09,25,03,59,11.10
2018,09,25,04,00,11.10
2018,09,25,04,01,11.10
2018,09,25,04,03,11.10
2018,09,25,04,29,10.90
2018,09,25,04,30,10.90
2018,09,25,04,31,10.90
2018,09,25,04,32,10.90
2018,09,25,04,33,10.90
2018,09,25,04,34,10.90
2018,09,25,04,35,10.90
2018,09,25,04,36,10.90
2018,09,25,04,37,10.90
2018,09,25,04,38,10.90
2018,09,25,04,39,10.90
2018,09,25,04,40,10.90
2018,09,25,04,41,10.80
2018,09,25,04,42,10.80
2018,09,25,04,43,10.80
2018,09,25,04,44,10.80
2018,09,25,04,45,10.80
2018,09,25,04,46,10.80
2018,09,25,04,47,10.80
2018,09,25,04,48,10.70
2018,09,25,04,49,10.70
2018,09,25,04,50,10.70
2018,09,25,04,51,10.70
2018,09,25,04,52,10.70
2018,09,25,04,53,10.70
2018,09,25,04,54,10.70
2018,09,25,04,55,10.70
2018,09,25,04,56,10.70
2018,09,25,04,57,10.70
2018,09,25,04,59,10.70
2018,09,25,05,29,10.60
2018,09,25,05,30,10.60
2018,09,25,05,31,10.60
2018,09,25,05,32,10.60
2018,09,25,05,33,10.60
2018,09,25,05,34,10.60
2018,09,25,05,35,10.60
2018,09,25,05,36,10.60
2018,09,25,05,37,10.60
2018,09,25,05,38,10.40
2018,09,25,05,39,10.40
2018,09,25,05,40,10.40
2018,09,25,05,41,10.40
2018,09,25,05,42,10.40
2018,09,25,05,43,10.40
2018,09,25,05,44,10.40
2018,09,25,05,45,10.40
2018,09,25,05,46,10.40
2018,09,25,05,47,10.40
2018,09,25,05,48,10.40
2018,09,25,05,49,10.40
2018,09,25,05,50,10.60
2018,09,25,05,51,10.60
2018,09,25,05,52,10.60
2018,09,25,05,53,10.60
2018,09,25,05,54,10.60
2018,09,25,05,55,10.60
2018,09,25,05,56,10.60
2018,09,25,05,57,10.60
2018,09,25,05,58,10.60
2018,09,25,05,59,10.60
2018,09,25,06,00,10.60
2018,09,25,06,01,10.60
2018,09,25,06,03,10.60
2018,09,25,06,04,10.60
2018,09,25,06,29,10.40
2018,09,25,06,30,10.40
2018,09,25,07,29,10.70
2018,09,25,07,30,10.80
2018,09,25,07,31,10.80
2018,09,25,07,32,10.80
2018,09,25,07,33,10.80
2018,09,25,07,34,10.80
2018,09,25,07,35,10.80
2018,09,25,07,36,10.80
2018,09,25,07,37,10.90
2018,09,25,07,38,10.90
2018,09,25,07,39,10.90
2018,09,25,07,40,10.90
2018,09,25,07,41,10.90
2018,09,25,07,42,10.90
2018,09,25,07,43,10.90
2018,09,25,07,44,10.90
2018,09,25,07,45,10.90
2018,09,25,07,46,10.90
2018,09,25,07,47,10.90
2018,09,25,07,48,10.90
2018,09,25,07,49,10.90
2018,09,25,07,50,10.90
2018,09,25,07,51,10.90
2018,09,25,07,52,11.10
2018,09,25,07,53,11.10
2018,09,25,07,54,11.10
2018,09,25,07,55,11.10
2018,09,25,07,56,11.10
2018,09,25,07,57,11.10
2018,09,25,07,58,11.10
2018,09,25,07,59,11.10
2018,09,25,08,00,11.10
2018,09,25,08,01,11.10
2018,09,25,08,02,11.10
2018,09,25,08,03,11.10
2018,09,25,08,04,11.20
2018,09,25,08,05,11.20
2018,09,25,08,07,11.20
2018,09,25,08,29,11.40
2018,09,25,08,30,11.40
2018,09,25,08,31,11.40
2018,09,25,08,32,11.40
2018,09,25,08,33,11.40
2018,09,25,08,34,11.40
2018,09,25,08,35,11.40
2018,09,25,08,36,11.40
2018,09,25,08,37,11.40
2018,09,25,08,38,11.40
2018,09,25,08,39,11.40
2018,09,25,08,40,11.40
2018,09,25,08,41,11.40
2018,09,25,08,42,11.40
2018,09,25,08,43,11.40
2018,09,25,08,44,11.40
2018,09,25,08,45,11.40
2018,09,25,08,46,11.40
2018,09,25,08,47,11.40
2018,09,25,08,48,11.40
2018,09,25,08,49,11.40
2018,09,25,08,50,11.60
2018,09,25,08,51,11.60
2018,09,25,08,52,11.60
2018,09,25,08,53,11.60
2018,09,25,08,54,11.60
2018,09,25,08,55,11.60
2018,09,25,08,56,11.60
2018,09,25,08,57,11.60
2018,09,25,08,58,11.60
2018,09,25,08,59,11.60
2018,09,25,09,00,11.60
2018,09,25,09,01,11.70
2018,09,25,09,02,11.70
2018,09,25,09,03,11.70
2018,09,25,09,04,11.70
2018,09,25,09,05,11.80
2018,09,25,09,06,11.80
2018,09,25,09,08,11.80
2018,09,25,09,29,12.10
2018,09,25,09,30,12.10
2018,09,25,09,31,12.10
2018,09,25,09,32,12.20
2018,09,25,09,33,12.20
2018,09,25,09,34,12.20
2018,09,25,09,35,12.20
2018,09,25,09,36,12.30
2018,09,25,09,37,12.30
2018,09,25,09,38,12.30
2018,09,25,09,39,12.30
2018,09,25,09,40,12.30
2018,09,25,09,41,12.30
2018,09,25,09,42,12.40
2018,09,25,09,43,12.40
2018,09,25,09,44,12.40
2018,09,25,09,45,12.50
2018,09,25,09,46,12.50
2018,09,25,09,47,12.60
2018,09,25,09,48,12.60
2018,09,25,09,49,12.70
2018,09,25,09,50,12.70
2018,09,25,09,51,12.70
2018,09,25,09,52,12.70
2018,09,25,09,53,12.70
2018,09,25,09,54,12.70
2018,09,25,09,55,12.70
2018,09,25,09,56,12.70
2018,09,25,09,57,12.80
2018,09,25,09,58,12.80
2018,09,25,09,59,12.80
2018,09,25,10,00,12.80
2018,09,25,10,01,12.90
2018,09,25,10,02,13.00
2018,09,25,10,03,13.00
2018,09,25,10,04,13.10
2018,09,25,10,06,13.20
2018,09,25,10,07,13.20
2018,09,25,10,08,13.20
2018,09,25,10,09,13.30
2018,09,25,10,29,13.90
2018,09,25,10,30,14.00
2018,09,25,10,31,14.10
2018,09,25,10,32,14.10
2018,09,25,10,33,14.20
2018,09,25,10,34,14.20
2018,09,25,10,35,14.20
2018,09,25,10,36,14.30
2018,09,25,10,37,14.30
2018,09,25,10,38,14.40
2018,09,25,10,39,14.50
2018,09,25,10,40,14.50
2018,09,25,10,41,14.50
2018,09,25,10,42,14.60
2018,09,25,10,43,14.50
2018,09,25,10,44,14.50
2018,09,25,10,45,14.50
2018,09,25,10,46,14.50
2018,09,25,10,47,14.40
2018,09,25,10,48,14.40
2018,09,25,10,49,14.40
2018,09,25,10,50,14.50
2018,09,25,10,51,14.50
2018,09,25,10,52,14.50
2018,09,25,10,53,14.50
2018,09,25,10,54,14.60
2018,09,25,10,55,14.70
2018,09,25,10,56,14.70
2018,09,25,10,57,14.80
2018,09,25,10,59,14.80
2018,09,25,11,29,15.50
2018,09,25,11,30,15.50
2018,09,25,11,31,15.50
2018,09,25,11,32,15.50
2018,09,25,11,33,15.50
2018,09,25,11,34,15.50
2018,09,25,11,35,15.60
2018,09,25,11,36,15.60
2018,09,25,11,37,15.60
2018,09,25,11,38,15.60
2018,09,25,11,39,15.70
2018,09,25,11,40,15.70
2018,09,25,11,41,15.70
2018,09,25,11,42,15.80
2018,09,25,11,43,15.80
2018,09,25,11,44,15.80
2018,09,25,11,45,15.80
2018,09,25,11,46,15.80
2018,09,25,11,47,15.80
2018,09,25,11,48,15.80
2018,09,25,11,49,15.80
2018,09,25,11,50,15.80
2018,09,25,11,52,15.80
2018,09,25,11,53,15.80
2018,09,25,11,54,15.80
2018,09,25,12,29,16.10
2018,09,25,12,30,16.10
2018,09,25,13,29,15.90
2018,09,25,13,30,15.90
2018,09,25,13,31,16.10
2018,09,25,13,32,16.10
2018,09,25,13,33,16.10
2018,09,25,13,34,16.10
2018,09,25,13,35,16.10
2018,09,25,13,36,16.10
2018,09,25,13,37,16.10
2018,09,25,13,38,16.20
2018,09,25,13,39,16.20
2018,09,25,13,40,16.20
2018,09,25,13,41,16.20
2018,09,25,13,42,16.20
2018,09,25,13,43,16.20
2018,09,25,13,44,16.20
2018,09,25,13,45,16.20
2018,09,25,13,46,16.10
2018,09,25,13,47,16.10
2018,09,25,13,48,16.10
2018,09,25,13,49,16.10
2018,09,25,13,50,16.10
2018,09,25,13,51,16.10
2018,09,25,13,52,16.10
2018,09,25,13,53,16.10
2018,09,25,13,54,16.10
2018,09,25,13,55,16.10
2018,09,25,13,56,16.10
2018,09,25,13,57,16.10
2018,09,25,13,58,16.20
2018,09,25,13,59,16.20
2018,09,25,14,00,16.20
2018,09,25,14,01,16.20
2018,09,25,14,02,16.20
2018,09,25,14,04,16.30
2018,09,25,14,29,16.40
2018,09,25,14,30,16.40
2018,09,25,14,31,16.40
2018,09,25,14,32,16.40
2018,09,25,14,33,16.40
2018,09,25,14,34,16.40
2018,09,25,14,35,16.40
2018,09,25,14,36,16.40
2018,09,25,14,37,16.40
2018,09,25,14,38,16.40
2018,09,25,14,39,16.40
2018,09,25,14,40,16.60
2018,09,25,14,41,16.40
2018,09,25,14,42,16.40
2018,09,25,14,43,16.40
2018,09,25,14,44,16.40
2018,09,25,14,45,16.40
2018,09,25,14,46,16.40
2018,09,25,14,47,16.40
2018,09,25,14,48,16.40
2018,09,25,14,49,16.40
2018,09,25,14,50,16.40
2018,09,25,14,51,16.40
2018,09,25,14,52,16.40
2018,09,25,14,53,16.40
2018,09,25,14,54,16.40
2018,09,25,14,55,16.40
2018,09,25,14,56,16.40
2018,09,25,14,57,16.30
2018,09,25,14,58,16.30
2018,09,25,14,59,16.30
2018,09,25,15,00,16.30
2018,09,25,15,01,16.30
2018,09,25,15,02,16.30
2018,09,25,15,03,16.30
2018,09,25,15,04,16.30
2018,09,25,15,05,16.30
2018,09,25,15,07,16.30
2018,09,25,15,29,16.80
2018,09,25,15,30,16.70
2018,09,25,15,31,16.70
2018,09,25,15,32,16.70
2018,09,25,15,33,16.70
2018,09,25,15,34,16.70
2018,09,25,15,35,16.70
2018,09,25,15,36,16.70
2018,09,25,15,37,16.70
2018,09,25,15,38,16.70
2018,09,25,15,39,16.60
2018,09,25,15,40,16.60
2018,09,25,15,41,16.60
2018,09,25,15,42,16.40
2018,09,25,15,43,16.40
2018,09,25,15,44,16.40
2018,09,25,15,45,16.40
2018,09,25,15,46,16.40
2018,09,25,15,47,16.40
2018,09,25,15,48,16.40
2018,09,25,15,49,16.30
2018,09,25,15,50,16.30
2018,09,25,15,51,16.30
2018,09,25,15,52,16.30
2018,09,25,15,53,16.30
2018,09,25,15,54,16.30
2018,09,25,15,55,16.30
2018,09,25,15,56,16.30
2018,09,25,15,57,16.30
2018,09,25,15,58,16.40
2018,09,25,15,59,16.40
2018,09,25,16,00,16.40
2018,09,25,16,01,16.40
2018,09,25,16,03,16.40
2018,09,25,16,04,16.40
2018,09,25,16,29,16.70
2018,09,25,16,30,16.70
2018,09,25,16,31,16.60
2018,09,25,16,32,16.60
2018,09,25,16,33,16.60
2018,09,25,16,34,16.40
2018,09,25,16,35,16.40
2018,09,25,16,36,16.40
2018,09,25,16,37,16.40
2018,09,25,16,38,16.40
2018,09,25,16,39,16.40
2018,09,25,16,40,16.40
2018,09,25,16,41,16.40
2018,09,25,16,42,16.40
2018,09,25,16,43,16.40
2018,09,25,16,44,16.60
2018,09,25,16,45,16.60
2018,09,25,16,46,16.60
2018,09,25,16,47,16.60
2018,09,25,16,48,16.60
2018,09,25,16,49,16.60
2018,09,25,16,50,16.70
2018,09,25,16,51,16.70
2018,09,25,16,52,16.70
2018,09,25,16,53,16.70
2018,09,25,16,54,16.70
2018,09,25,16,55,16.70
2018,09,25,16,56,16.70
2018,09,25,16,57,16.70
2018,09,25,16,58,16.70
2018,09,25,16,59,16.70
2018,09,25,17,00,16.70
2018,09,25,17,01,16.70
2018,09,25,17,02,16.70
2018,09,25,17,03,16.70
2018,09,25,17,04,16.70
2018,09,25,17,05,16.70
2018,09,25,17,07,16.60
2018,09,25,17,08,16.60
2018,09,25,17,29,15.90
2018,09,25,17,30,15.90
2018,09,25,17,31,15.90
2018,09,25,17,32,15.80
2018,09,25,17,33,15.80
2018,09,25,17,34,15.80
2018,09,25,17,35,15.80
2018,09,25,17,36,15.80
2018,09,25,17,37,15.80
2018,09,25,17,38,15.80
2018,09,25,17,39,15.80
2018,09,25,17,40,15.70
2018,09,25,17,41,15.70
2018,09,25,17,42,15.60
2018,09,25,17,43,15.60
2018,09,25,17,44,15.60
2018,09,25,17,45,15.50
2018,09,25,17,46,15.50
2018,09,25,17,47,15.50
2018,09,25,17,48,15.40
2018,09,25,17,49,15.30
2018,09,25,17,50,15.30
2018,09,25,17,51,15.30
2018,09,25,17,52,15.30
2018,09,25,17,53,15.30
2018,09,25,17,54,15.30
2018,09,25,17,55,15.20
2018,09,25,17,56,15.20
2018,09,25,17,57,15.20
2018,09,25,17,58,15.10
2018,09,25,17,59,15.10
2018,09,25,18,00,15.10
2018,09,25,18,01,15.10
2018,09,25,18,02,15.10
2018,09,25,18,03,15.10
2018,09,25,18,04,15.00
2018,09,25,18,06,15.00
2018,09,25,18,07,15.00
2018,09,25,18,08,15.00
2018,09,25,18,09,14.90
2018,09,25,18,29,14.60
2018,09,25,18,30,14.60
2018,09,25,19,29,13.30
2018,09,25,19,30,13.20
2018,09,25,19,31,13.20
2018,09,25,19,32,13.20
2018,09,25,19,33,13.10
2018,09,25,19,34,13.10
2018,09,25,19,35,13.10
2018,09,25,19,36,13.10
2018,09,25,19,37,13.10
2018,09,25,19,38,13.00
2018,09,25,19,39,13.00
2018,09,25,19,40,13.00
2018,09,25,19,41,13.00
2018,09,25,19,42,13.00
2018,09,25,19,43,12.90
2018,09,25,19,44,12.90
2018,09,25,19,45,12.90
2018,09,25,19,46,12.90
2018,09,25,19,47,12.90
2018,09,25,19,48,12.90
2018,09,25,19,49,12.80
2018,09,25,19,50,12.80
2018,09,25,19,51,12.80
2018,09,25,19,52,12.80
2018,09,25,19,53,12.80
2018,09,25,19,54,12.80
2018,09,25,19,55,12.80
2018,09,25,19,56,12.80
2018,09,25,19,57,12.80
2018,09,25,19,58,12.80
2018,09,25,19,59,12.80
2018,09,25,20,00,12.80
2018,09,25,20,02,12.80
2018,09,25,20,29,12.50
2018,09,25,20,30,12.50
2018,09,25,20,31,12.50
2018,09,25,20,32,12.50
2018,09,25,20,33,12.50
2018,09,25,20,34,12.40
2018,09,25,20,35,12.40
2018,09,25,20,36,12.40
2018,09,25,20,37,12.40
2018,09,25,20,38,12.40
2018,09,25,20,39,12.40
2018,09,25,20,40,12.30
2018,09,25,20,41,12.30
2018,09,25,20,42,12.30
2018,09,25,20,43,12.30
2018,09,25,20,44,12.30
2018,09,25,20,45,12.30
2018,09,25,20,46,12.30
2018,09,25,20,47,12.30
2018,09,25,20,48,12.30
2018,09,25,20,49,12.20
2018,09,25,20,50,12.20
2018,09,25,20,51,12.20
2018,09,25,20,52,12.20
2018,09,25,20,53,12.20
2018,09,25,20,54,12.10
2018,09,25,20,55,12.10
2018,09,25,20,56,12.10
2018,09,25,20,57,12.10
2018,09,25,20,58,12.10
2018,09,25,20,59,12.10
2018,09,25,21,00,12.00
2018,09,25,21,01,12.00
2018,09,25,21,02,12.00
2018,09,25,21,04,11.90
2018,09,25,21,29,11.90
2018,09,25,21,30,11.90
2018,09,25,21,31,11.90
2018,09,25,21,32,11.90
2018,09,25,21,33,11.90
2018,09,25,21,34,11.90
2018,09,25,21,35,11.90
2018,09,25,21,36,11.90
2018,09,25,21,37,11.90
2018,09,25,21,38,11.90
2018,09,25,21,39,11.90
2018,09,25,21,40,11.90
2018,09,25,21,41,11.90
2018,09,25,21,42,12.00
2018,09,25,21,43,12.00
2018,09,25,21,44,12.10
2018,09,25,21,45,12.10
2018,09,25,21,46,12.10
2018,09,25,21,47,12.10
2018,09,25,21,48,12.20
2018,09,25,21,49,12.20
2018,09,25,21,50,12.20
2018,09,25,21,51,12.20
2018,09,25,21,52,12.20
2018,09,25,21,53,12.20
2018,09,25,21,54,12.20
2018,09,25,21,55,12.20
2018,09,25,21,56,12.20
2018,09,25,21,57,12.20
2018,09,25,21,58,12.20
2018,09,25,21,59,12.10
2018,09,25,22,00,12.10
2018,09,25,22,01,12.10
2018,09,25,22,03,12.00
2018,09,25,22,29,11.80
2018,09,25,22,30,11.80
2018,09,25,22,31,11.80
2018,09,25,22,32,11.80
2018,09,25,22,33,11.80
2018,09,25,22,34,11.80
2018,09,25,22,35,11.80
2018,09,25,22,36,11.80
2018,09,25,22,37,11.80
2018,09,25,22,38,11.90
2018,09,25,22,39,11.90
2018,09,25,22,40,11.90
2018,09,25,22,41,12.00
2018,09,25,22,42,12.10
2018,09,25,22,43,12.10
2018,09,25,22,44,12.10
2018,09,25,22,45,12.10
2018,09,25,22,46,12.20
2018,09,25,22,47,12.20
2018,09,25,22,48,12.20
2018,09,25,22,49,12.20
2018,09,25,22,50,12.20
2018,09,25,22,51,12.30
2018,09,25,22,52,12.30
2018,09,25,22,53,12.30
2018,09,25,22,54,12.30
2018,09,25,22,56,12.30
2018,09,25,22,57,12.30
2018,09,25,22,58,12.30
2018,09,25,22,59,12.30
2018,09,25,23,29,11.80
2018,09,25,23,30,11.70
2018,09,25,23,31,11.70
2018,09,25,23,32,11.70
2018,09,25,23,33,11.70
2018,09,25,23,34,11.60
2018,09,25,23,35,11.60
2018,09,25,23,36,11.60
2018,09,25,23,37,11.60
2018,09,25,23,38,11.60
2018,09,25,23,39,11.60
2018,09,25,23,40,11.60
2018,09,25,23,41,11.60
2018,09,25,23,42,11.60
2018,09,25,23,43,11.60
2018,09,25,23,44,11.40
2018,09,25,23,45,11.40
2018,09,25,23,46,11.40
2018,09,25,23,47,11.40
2018,09,25,23,48,11.40
2018,09,25,23,49,11.40
2018,09,25,23,50,11.40
2018,09,25,23,51,11.40
2018,09,25,23,52,11.30
2018,09,25,23,53,11.30
2018,09,25,23,54,11.30
2018,09,25,23,55,11.30
2018,09,25,23,56,11.30
2018,09,25,23,57,11.30
2018,09,25,23,58,11.30
2018,09,25,23,59,11.30
